Location: Helsinki
(60.1699°N, 24.9384°E)
Time: 23:30:11
(UTC+02:00)

Altair - Pass Details

Date: 05 November 2020
Orbit: 1502 x 1682 km, 47.2° (Epoch: 25 November)

Event Time Altitude Azimuth Distance (km) Brightness Sun altitude
Rises 08:44:19 0° 273° (W) 4,694 9.6 4.1°
Reaches altitude 10° 08:47:56 10° 261° (W) 3,733 9.2 4.4°
Maximum altitude 08:55:15 26° 210° (SSW) 2,714 9.1 5.1°
Drops below altitude 10° 09:02:47 10° 159° (SSE) 3,837 11.1 5.7°
Sets 09:06:34 0° 148° (SSE) 4,849 12.3 6.1°
